Year,Month,Day,Hour,Minute,Value (Times are PST for temperature in C)
2015,05,31,00,00,13.00
2015,05,31,00,01,13.00
2015,05,31,00,02,13.00
2015,05,31,00,03,13.00
2015,05,31,00,04,13.00
2015,05,31,00,05,12.90
2015,05,31,00,06,12.90
2015,05,31,00,07,12.90
2015,05,31,00,08,12.90
2015,05,31,00,09,12.90
2015,05,31,00,10,12.80
2015,05,31,00,11,12.80
2015,05,31,00,12,12.80
2015,05,31,00,13,12.80
2015,05,31,00,14,12.80
2015,05,31,00,15,12.80
2015,05,31,00,16,12.80
2015,05,31,00,17,12.80
2015,05,31,00,18,12.80
2015,05,31,00,19,12.80
2015,05,31,00,20,12.80
2015,05,31,00,21,12.80
2015,05,31,00,22,12.80
2015,05,31,00,23,12.80
2015,05,31,00,24,12.80
2015,05,31,00,25,12.80
2015,05,31,00,26,12.70
2015,05,31,00,27,12.70
2015,05,31,00,28,12.70
2015,05,31,00,29,12.70
2015,05,31,00,30,12.70
2015,05,31,00,31,12.60
2015,05,31,00,32,12.60
2015,05,31,00,33,12.60
2015,05,31,00,34,12.60
2015,05,31,00,35,12.50
2015,05,31,00,36,12.50
2015,05,31,00,37,12.50
2015,05,31,00,38,12.40
2015,05,31,00,39,12.40
2015,05,31,00,40,12.30
2015,05,31,00,41,12.30
2015,05,31,00,42,12.30
2015,05,31,00,43,12.20
2015,05,31,00,44,12.20
2015,05,31,00,45,12.10
2015,05,31,00,46,12.00
2015,05,31,00,47,12.00
2015,05,31,00,48,12.00
2015,05,31,00,49,11.90
2015,05,31,00,50,11.90
2015,05,31,00,51,11.90
2015,05,31,00,52,11.80
2015,05,31,00,53,11.80
2015,05,31,00,54,11.80
2015,05,31,00,55,11.80
2015,05,31,00,56,11.80
2015,05,31,00,57,11.80
2015,05,31,00,58,11.70
2015,05,31,00,59,11.70
2015,05,31,01,00,11.60
2015,05,31,01,01,11.60
2015,05,31,01,02,11.60
2015,05,31,01,03,11.50
2015,05,31,01,04,11.40
2015,05,31,01,05,11.40
2015,05,31,01,06,11.40
2015,05,31,01,07,11.40
2015,05,31,01,08,11.40
2015,05,31,01,09,11.40
2015,05,31,01,10,11.40
2015,05,31,01,11,11.40
2015,05,31,01,12,11.40
2015,05,31,01,13,11.40
2015,05,31,01,14,11.40
2015,05,31,01,15,11.40
2015,05,31,01,16,11.40
2015,05,31,01,17,11.30
2015,05,31,01,18,11.30
2015,05,31,01,19,11.30
2015,05,31,01,20,11.30
2015,05,31,01,21,11.30
2015,05,31,01,22,11.30
2015,05,31,01,23,11.30
2015,05,31,01,24,11.30
2015,05,31,01,25,11.30
2015,05,31,01,26,11.30
2015,05,31,01,27,11.30
2015,05,31,01,28,11.30
2015,05,31,01,29,11.30
2015,05,31,01,30,11.30
2015,05,31,01,31,11.30
2015,05,31,01,32,11.30
2015,05,31,01,33,11.30
2015,05,31,01,34,11.30
2015,05,31,01,35,11.30
2015,05,31,01,36,11.30
2015,05,31,01,37,11.30
2015,05,31,01,38,11.30
2015,05,31,01,39,11.30
2015,05,31,01,40,11.30
2015,05,31,01,41,11.30
2015,05,31,01,42,11.30
2015,05,31,01,43,11.20
2015,05,31,01,44,11.20
2015,05,31,01,45,11.20
2015,05,31,01,46,11.20
2015,05,31,01,47,11.20
2015,05,31,01,48,11.20
2015,05,31,01,49,11.20
2015,05,31,01,50,11.20
2015,05,31,01,51,11.20
2015,05,31,01,52,11.10
2015,05,31,01,53,11.10
2015,05,31,01,54,11.10
2015,05,31,01,55,11.10
2015,05,31,01,56,11.10
2015,05,31,01,57,11.00
2015,05,31,01,58,10.90
2015,05,31,01,59,10.80
2015,05,31,02,00,10.70
2015,05,31,02,01,10.70
2015,05,31,02,02,10.70
2015,05,31,02,03,10.70
2015,05,31,02,04,10.70
2015,05,31,02,05,10.80
2015,05,31,02,06,10.80
2015,05,31,02,07,10.80
2015,05,31,02,08,10.70
2015,05,31,02,09,10.70
2015,05,31,02,10,10.70
2015,05,31,02,11,10.70
2015,05,31,02,12,10.70
2015,05,31,02,13,10.70
2015,05,31,02,14,10.70
2015,05,31,02,15,10.70
2015,05,31,02,16,10.70
2015,05,31,02,17,10.70
2015,05,31,02,18,10.70
2015,05,31,02,19,10.70
2015,05,31,02,20,10.70
2015,05,31,02,21,10.70
2015,05,31,02,22,10.70
2015,05,31,02,23,10.80
2015,05,31,02,24,10.80
2015,05,31,02,25,10.80
2015,05,31,02,26,10.80
2015,05,31,02,27,10.80
2015,05,31,02,28,10.80
2015,05,31,02,29,10.70
2015,05,31,02,30,10.70
2015,05,31,02,31,10.70
2015,05,31,02,32,10.70
2015,05,31,02,33,10.70
2015,05,31,02,34,10.70
2015,05,31,02,35,10.70
2015,05,31,02,36,10.60
2015,05,31,02,37,10.60
2015,05,31,02,38,10.60
2015,05,31,02,39,10.60
2015,05,31,02,40,10.60
2015,05,31,02,41,10.60
2015,05,31,02,42,10.60
2015,05,31,02,43,10.60
2015,05,31,02,44,10.60
2015,05,31,02,45,10.60
2015,05,31,02,46,10.60
2015,05,31,02,47,10.60
2015,05,31,02,48,10.60
2015,05,31,02,49,10.50
2015,05,31,02,50,10.40
2015,05,31,02,51,10.40
2015,05,31,02,52,10.40
2015,05,31,02,53,10.40
2015,05,31,02,54,10.50
2015,05,31,02,55,10.60
2015,05,31,02,56,10.60
2015,05,31,02,57,10.60
2015,05,31,02,58,10.60
2015,05,31,02,59,10.60
2015,05,31,03,00,10.60
2015,05,31,03,01,10.60
2015,05,31,03,02,10.60
2015,05,31,03,03,10.50
2015,05,31,03,04,10.40
2015,05,31,03,05,10.40
2015,05,31,03,06,10.40
2015,05,31,03,07,10.40
2015,05,31,03,08,10.40
2015,05,31,03,09,10.40
2015,05,31,03,10,10.40
2015,05,31,03,11,10.40
2015,05,31,03,12,10.40
2015,05,31,03,13,10.30
2015,05,31,03,14,10.30
2015,05,31,03,15,10.30
2015,05,31,03,16,10.30
2015,05,31,03,17,10.30
2015,05,31,03,18,10.30
2015,05,31,03,19,10.30
2015,05,31,03,20,10.30
2015,05,31,03,21,10.30
2015,05,31,03,22,10.20
2015,05,31,03,23,10.20
2015,05,31,03,24,10.20
2015,05,31,03,25,10.20
2015,05,31,03,26,10.20
2015,05,31,03,27,10.20
2015,05,31,03,28,10.20
2015,05,31,03,29,10.20
2015,05,31,03,30,10.20
2015,05,31,03,31,10.10
2015,05,31,03,32,10.10
2015,05,31,03,33,10.10
2015,05,31,03,34,10.10
2015,05,31,03,35,10.10
2015,05,31,03,36,10.10
2015,05,31,03,37,10.10
2015,05,31,03,38,10.10
2015,05,31,03,39,10.10
2015,05,31,03,40,10.10
2015,05,31,03,41,10.10
2015,05,31,03,42,10.10
2015,05,31,03,43,10.10
2015,05,31,03,44,10.10
2015,05,31,03,45,10.10
2015,05,31,03,46,10.00
2015,05,31,03,47,9.90
2015,05,31,03,48,9.90
2015,05,31,03,49,9.90
2015,05,31,03,50,9.90
2015,05,31,03,51,9.90
2015,05,31,03,52,9.90
2015,05,31,03,53,9.90
2015,05,31,03,54,9.90
2015,05,31,03,55,9.90
2015,05,31,03,56,9.90
2015,05,31,03,57,9.80
2015,05,31,03,58,9.80
2015,05,31,03,59,9.80
2015,05,31,04,00,9.80
2015,05,31,04,01,9.80
2015,05,31,04,02,9.70
2015,05,31,04,03,9.70
2015,05,31,04,04,9.70
2015,05,31,04,05,9.70
2015,05,31,04,06,9.70
2015,05,31,04,07,9.70
2015,05,31,04,08,9.70
2015,05,31,04,09,9.70
2015,05,31,04,10,9.70
2015,05,31,04,11,9.70
2015,05,31,04,12,9.60
2015,05,31,04,13,9.60
2015,05,31,04,14,9.50
2015,05,31,04,15,9.50
2015,05,31,04,16,9.40
2015,05,31,04,17,9.40
2015,05,31,04,18,9.40
2015,05,31,04,19,9.30
2015,05,31,04,20,9.30
2015,05,31,04,21,9.30
2015,05,31,04,22,9.30
2015,05,31,04,23,9.20
2015,05,31,04,24,9.20
2015,05,31,04,25,9.20
2015,05,31,04,26,9.20
2015,05,31,04,27,9.20
2015,05,31,04,28,9.20
2015,05,31,04,29,9.20
2015,05,31,04,30,9.20
2015,05,31,04,31,9.20
2015,05,31,04,32,9.20
2015,05,31,04,33,9.20
2015,05,31,04,34,9.20
2015,05,31,04,35,9.10
2015,05,31,04,36,9.00
2015,05,31,04,37,9.00
2015,05,31,04,38,9.00
2015,05,31,04,39,9.00
2015,05,31,04,40,8.90
2015,05,31,04,41,8.90
2015,05,31,04,42,8.90
2015,05,31,04,43,8.90
2015,05,31,04,44,8.80
2015,05,31,04,45,8.80
2015,05,31,04,46,8.90
2015,05,31,04,47,8.90
2015,05,31,04,48,8.90
2015,05,31,04,49,8.90
2015,05,31,04,50,8.90
2015,05,31,04,51,8.90
2015,05,31,04,52,8.90
2015,05,31,04,53,8.90
2015,05,31,04,54,8.90
2015,05,31,04,55,8.90
2015,05,31,04,56,8.90
2015,05,31,04,57,9.00
2015,05,31,04,58,9.00
2015,05,31,04,59,9.00
2015,05,31,05,00,9.00
2015,05,31,05,01,9.00
2015,05,31,05,02,9.00
2015,05,31,05,03,8.90
2015,05,31,05,04,9.00
2015,05,31,05,05,9.00
2015,05,31,05,06,9.00
2015,05,31,05,07,9.00
2015,05,31,05,08,9.00
2015,05,31,05,09,9.00
2015,05,31,05,10,9.00
2015,05,31,05,11,9.00
2015,05,31,05,12,9.00
2015,05,31,05,13,9.00
2015,05,31,05,14,9.00
2015,05,31,05,15,9.00
2015,05,31,05,16,9.00
2015,05,31,05,17,9.00
2015,05,31,05,18,9.00
2015,05,31,05,19,9.00
2015,05,31,05,20,9.00
2015,05,31,05,21,9.00
2015,05,31,05,22,9.00
2015,05,31,05,23,9.00
2015,05,31,05,24,9.00
2015,05,31,05,25,9.00
2015,05,31,05,26,9.00
2015,05,31,05,27,9.00
2015,05,31,05,28,9.00
2015,05,31,05,29,9.00
2015,05,31,05,30,9.10
2015,05,31,05,31,9.10
2015,05,31,05,32,9.10
2015,05,31,05,33,9.10
2015,05,31,05,34,9.10
2015,05,31,05,35,9.10
2015,05,31,05,36,9.10
2015,05,31,05,37,9.20
2015,05,31,05,38,9.20
2015,05,31,05,39,9.20
2015,05,31,05,40,9.20
2015,05,31,05,41,9.20
2015,05,31,05,42,9.20
2015,05,31,05,43,9.20
2015,05,31,05,44,9.20
2015,05,31,05,45,9.20
2015,05,31,05,46,9.30
2015,05,31,05,47,9.30
2015,05,31,05,48,9.30
2015,05,31,05,49,9.40
2015,05,31,05,50,9.40
2015,05,31,05,51,9.40
2015,05,31,05,52,9.40
2015,05,31,05,53,9.50
2015,05,31,05,54,9.50
2015,05,31,05,55,9.60
2015,05,31,05,56,9.60
2015,05,31,05,57,9.70
2015,05,31,05,58,9.70
2015,05,31,05,59,9.70
2015,05,31,06,00,9.70
2015,05,31,06,01,9.70
2015,05,31,06,02,9.70
2015,05,31,06,03,9.70
2015,05,31,06,04,9.70
2015,05,31,06,05,9.70
2015,05,31,06,06,9.80
2015,05,31,06,07,9.80
2015,05,31,06,08,9.80
2015,05,31,06,09,9.90
2015,05,31,06,10,9.90
2015,05,31,06,11,9.90
2015,05,31,06,12,9.90
2015,05,31,06,13,9.90
2015,05,31,06,14,9.90
2015,05,31,06,15,9.90
2015,05,31,06,16,10.00
2015,05,31,06,17,10.10
2015,05,31,06,18,10.10
2015,05,31,06,19,10.10
2015,05,31,06,20,10.10
2015,05,31,06,21,10.10
2015,05,31,06,22,10.10
2015,05,31,06,23,10.10
2015,05,31,06,24,10.10
2015,05,31,06,25,10.20
2015,05,31,06,26,10.20
2015,05,31,06,27,10.20
2015,05,31,06,28,10.30
2015,05,31,06,29,10.30
2015,05,31,06,30,10.40
2015,05,31,06,31,10.40
2015,05,31,06,32,10.50
2015,05,31,06,33,10.60
2015,05,31,06,34,10.60
2015,05,31,06,35,10.60
2015,05,31,06,36,10.70
2015,05,31,06,37,10.70
2015,05,31,06,38,10.80
2015,05,31,06,39,10.80
2015,05,31,06,40,10.80
2015,05,31,06,41,10.90
2015,05,31,06,42,10.90
2015,05,31,06,43,10.90
2015,05,31,06,44,10.90
2015,05,31,06,45,11.10
2015,05,31,06,46,11.10
2015,05,31,06,47,11.10
2015,05,31,06,48,11.10
2015,05,31,06,49,11.20
2015,05,31,06,50,11.20
2015,05,31,06,51,11.20
2015,05,31,06,52,11.20
2015,05,31,06,53,11.20
2015,05,31,06,54,11.30
2015,05,31,06,55,11.30
2015,05,31,06,56,11.30
2015,05,31,06,57,11.30
2015,05,31,06,58,11.40
2015,05,31,06,59,11.40
2015,05,31,07,00,11.40
2015,05,31,07,01,11.40
2015,05,31,07,02,11.50
2015,05,31,07,03,11.60
2015,05,31,07,04,11.60
2015,05,31,07,05,11.60
2015,05,31,07,06,11.80
2015,05,31,07,07,11.80
2015,05,31,07,08,12.00
2015,05,31,07,09,12.10
2015,05,31,07,10,12.10
2015,05,31,07,11,12.20
2015,05,31,07,12,12.30
2015,05,31,07,13,12.40
2015,05,31,07,14,12.50
2015,05,31,07,15,12.60
2015,05,31,07,16,12.70
2015,05,31,07,17,12.80
2015,05,31,07,18,12.80
2015,05,31,07,19,12.90
2015,05,31,07,20,12.90
2015,05,31,07,21,13.00
2015,05,31,07,22,13.00
2015,05,31,07,23,13.00
2015,05,31,07,24,13.00
2015,05,31,07,25,13.10
2015,05,31,07,26,13.10
2015,05,31,07,27,13.20
2015,05,31,07,28,13.20
2015,05,31,07,29,13.20
2015,05,31,07,30,13.20
2015,05,31,07,31,13.20
2015,05,31,07,32,13.30
2015,05,31,07,33,13.30
2015,05,31,07,34,13.30
2015,05,31,07,35,13.30
2015,05,31,07,36,13.30
2015,05,31,07,37,13.30
2015,05,31,07,38,13.30
2015,05,31,07,39,13.30
2015,05,31,07,40,13.30
2015,05,31,07,41,13.30
2015,05,31,07,42,13.30
2015,05,31,07,43,13.30
2015,05,31,07,44,13.30
2015,05,31,07,45,13.30
2015,05,31,07,46,13.30
2015,05,31,07,47,13.30
2015,05,31,07,48,13.30
2015,05,31,07,49,13.30
2015,05,31,07,50,13.30
2015,05,31,07,51,13.30
2015,05,31,07,52,13.30
2015,05,31,07,53,13.40
2015,05,31,07,54,13.40
2015,05,31,07,55,13.40
2015,05,31,07,56,13.40
2015,05,31,07,57,13.50
2015,05,31,07,58,13.50
2015,05,31,07,59,13.40
2015,05,31,08,00,13.40
2015,05,31,08,01,13.40
2015,05,31,08,02,13.40
2015,05,31,08,03,13.40
2015,05,31,08,04,13.40
2015,05,31,08,05,13.40
2015,05,31,08,06,13.40
2015,05,31,08,07,13.40
2015,05,31,08,08,13.40
2015,05,31,08,09,13.40
2015,05,31,08,10,13.50
2015,05,31,08,11,13.50
2015,05,31,08,12,13.40
2015,05,31,08,13,13.40
2015,05,31,08,14,13.40
2015,05,31,08,15,13.40
2015,05,31,08,16,13.30
2015,05,31,08,17,13.30
2015,05,31,08,18,13.30
2015,05,31,08,19,13.20
2015,05,31,08,20,13.10
2015,05,31,08,21,13.10
2015,05,31,08,22,13.10
2015,05,31,08,23,13.00
2015,05,31,08,24,13.00
2015,05,31,08,25,13.00
2015,05,31,08,26,13.00
2015,05,31,08,27,13.00
2015,05,31,08,28,13.00
2015,05,31,08,29,13.00
2015,05,31,08,30,13.00
2015,05,31,08,31,13.00
2015,05,31,08,32,13.10
2015,05,31,08,33,13.10
2015,05,31,08,34,13.20
2015,05,31,08,35,13.20
2015,05,31,08,36,13.20
2015,05,31,08,37,13.30
2015,05,31,08,38,13.30
2015,05,31,08,39,13.30
2015,05,31,08,40,13.30
2015,05,31,08,41,13.30
2015,05,31,08,42,13.30
2015,05,31,08,43,13.20
2015,05,31,08,44,13.20
2015,05,31,08,45,13.20
2015,05,31,08,46,13.20
2015,05,31,08,47,13.20
2015,05,31,08,48,13.10
2015,05,31,08,49,13.10
2015,05,31,08,50,13.10
2015,05,31,08,51,13.20
2015,05,31,08,52,13.20
2015,05,31,08,53,13.20
2015,05,31,08,54,13.30
2015,05,31,08,55,13.30
2015,05,31,08,56,13.30
2015,05,31,08,57,13.40
2015,05,31,08,58,13.50
2015,05,31,08,59,13.50
2015,05,31,09,00,13.50
2015,05,31,09,01,13.50
2015,05,31,09,02,13.50
2015,05,31,09,03,13.50
2015,05,31,09,04,13.60
2015,05,31,09,05,13.60
2015,05,31,09,06,13.60
2015,05,31,09,07,13.60
2015,05,31,09,08,13.60
2015,05,31,09,09,13.70
2015,05,31,09,10,13.70
2015,05,31,09,11,13.70
2015,05,31,09,12,13.70
2015,05,31,09,13,13.70
2015,05,31,09,14,13.70
2015,05,31,09,15,13.70
2015,05,31,09,16,13.70
2015,05,31,09,17,13.70
2015,05,31,09,18,13.70
2015,05,31,09,19,13.70
2015,05,31,09,20,13.70
2015,05,31,09,21,13.70
2015,05,31,09,22,13.70
2015,05,31,09,23,13.80
2015,05,31,09,24,13.80
2015,05,31,09,25,13.80
2015,05,31,09,26,13.90
2015,05,31,09,27,13.90
2015,05,31,09,28,13.90
2015,05,31,09,29,13.90
2015,05,31,09,30,13.90
2015,05,31,09,31,13.90
2015,05,31,09,32,13.90
2015,05,31,09,33,13.90
2015,05,31,09,34,13.90
2015,05,31,09,35,13.90
2015,05,31,09,36,13.80
2015,05,31,09,37,13.80
2015,05,31,09,38,13.70
2015,05,31,09,39,13.70
2015,05,31,09,40,13.70
2015,05,31,09,41,13.70
2015,05,31,09,42,13.70
2015,05,31,09,43,13.70
2015,05,31,09,44,13.70
2015,05,31,09,45,13.70
2015,05,31,09,46,13.60
2015,05,31,09,47,13.60
2015,05,31,09,48,13.60
2015,05,31,09,49,13.60
2015,05,31,09,50,13.60
2015,05,31,09,51,13.60
2015,05,31,09,52,13.60
2015,05,31,09,53,13.60
2015,05,31,09,54,13.70
2015,05,31,09,55,13.70
2015,05,31,09,56,13.80
2015,05,31,09,57,13.90
2015,05,31,09,58,14.00
2015,05,31,09,59,14.10
2015,05,31,10,00,14.20
2015,05,31,10,01,14.30
2015,05,31,10,02,14.40
2015,05,31,10,03,14.50
2015,05,31,10,04,14.60
2015,05,31,10,05,14.70
2015,05,31,10,06,14.80
2015,05,31,10,07,14.70
2015,05,31,10,08,14.60
2015,05,31,10,09,14.60
2015,05,31,10,10,14.60
2015,05,31,10,11,14.60
2015,05,31,10,12,14.70
2015,05,31,10,13,14.70
2015,05,31,10,14,14.70
2015,05,31,10,15,14.70
2015,05,31,10,16,14.80
2015,05,31,10,17,14.80
2015,05,31,10,18,14.80
2015,05,31,10,19,14.90
2015,05,31,10,20,14.90
2015,05,31,10,21,14.90
2015,05,31,10,22,14.90
2015,05,31,10,23,14.90
2015,05,31,10,24,14.80
2015,05,31,10,25,14.60
2015,05,31,10,26,14.50
2015,05,31,10,27,14.50
2015,05,31,10,28,14.40
2015,05,31,10,29,14.40
2015,05,31,10,30,14.40
2015,05,31,10,31,14.30
2015,05,31,10,32,14.30
2015,05,31,10,33,14.40
2015,05,31,10,34,14.40
2015,05,31,10,35,14.40
2015,05,31,10,36,14.30
2015,05,31,10,37,14.30
2015,05,31,10,38,14.20
2015,05,31,10,39,14.20
2015,05,31,10,40,14.20
2015,05,31,10,41,14.20
2015,05,31,10,42,14.20
2015,05,31,10,43,14.20
2015,05,31,10,44,14.20
2015,05,31,10,45,14.20
2015,05,31,10,46,14.20
2015,05,31,10,47,14.20
2015,05,31,10,48,14.20
2015,05,31,10,49,14.20
2015,05,31,10,50,14.20
2015,05,31,10,51,14.20
2015,05,31,10,52,14.20
2015,05,31,10,53,14.20
2015,05,31,10,54,14.30
2015,05,31,10,55,14.40
2015,05,31,10,56,14.40
2015,05,31,10,57,14.50
2015,05,31,10,58,14.50
2015,05,31,10,59,14.50
2015,05,31,11,00,14.60
2015,05,31,11,01,14.60
2015,05,31,11,02,14.70
2015,05,31,11,03,14.80
2015,05,31,11,04,14.90
2015,05,31,11,05,14.90
2015,05,31,11,06,15.00
2015,05,31,11,07,15.10
2015,05,31,11,08,15.20
2015,05,31,11,09,15.20
2015,05,31,11,10,15.20
2015,05,31,11,11,15.30
2015,05,31,11,12,15.30
2015,05,31,11,13,15.30
2015,05,31,11,14,15.30
2015,05,31,11,15,15.30
2015,05,31,11,16,15.30
2015,05,31,11,17,15.30
2015,05,31,11,18,15.40
2015,05,31,11,19,15.30
2015,05,31,11,20,15.40
2015,05,31,11,21,15.40
2015,05,31,11,22,15.40
2015,05,31,11,23,15.40
2015,05,31,11,24,15.40
2015,05,31,11,25,15.40
2015,05,31,11,26,15.40
2015,05,31,11,27,15.50
2015,05,31,11,28,15.60
2015,05,31,11,29,15.70
2015,05,31,11,30,15.70
2015,05,31,11,31,15.70
2015,05,31,11,32,15.80
2015,05,31,11,33,15.80
2015,05,31,11,34,15.80
2015,05,31,11,35,15.90
2015,05,31,11,36,15.90
2015,05,31,11,37,16.00
2015,05,31,11,38,16.10
2015,05,31,11,39,16.10
2015,05,31,11,40,16.10
2015,05,31,11,41,16.10
2015,05,31,11,42,16.10
2015,05,31,11,43,16.20
2015,05,31,11,44,16.20
2015,05,31,11,45,16.30
2015,05,31,11,46,16.30
2015,05,31,11,47,16.30
2015,05,31,11,48,16.30
2015,05,31,11,49,16.30
2015,05,31,11,50,16.20
2015,05,31,11,51,16.20
2015,05,31,11,52,16.20
2015,05,31,11,53,16.20
2015,05,31,11,54,16.20
2015,05,31,11,55,16.20
2015,05,31,11,56,16.20
2015,05,31,11,57,16.20
2015,05,31,11,58,16.30
2015,05,31,11,59,16.40
2015,05,31,12,00,16.40
2015,05,31,12,01,16.40
2015,05,31,12,02,16.50
2015,05,31,12,03,16.60
2015,05,31,12,04,16.70
2015,05,31,12,05,16.70
2015,05,31,12,06,16.70
2015,05,31,12,07,16.70
2015,05,31,12,08,16.70
2015,05,31,12,09,16.60
2015,05,31,12,10,16.60
2015,05,31,12,11,16.70
2015,05,31,12,12,16.70
2015,05,31,12,13,16.70
2015,05,31,12,14,16.60
2015,05,31,12,15,16.50
2015,05,31,12,16,16.40
2015,05,31,12,17,16.40
2015,05,31,12,18,16.40
2015,05,31,12,19,16.40
2015,05,31,12,20,16.40
2015,05,31,12,21,16.50
2015,05,31,12,22,16.60
2015,05,31,12,23,16.70
2015,05,31,12,24,16.70
2015,05,31,12,25,16.80
2015,05,31,12,26,16.90
2015,05,31,12,27,17.00
2015,05,31,12,28,17.00
2015,05,31,12,29,17.10
2015,05,31,12,30,17.20
2015,05,31,12,31,17.20
2015,05,31,12,32,17.30
2015,05,31,12,33,17.30
2015,05,31,12,34,17.30
2015,05,31,12,35,17.40
2015,05,31,12,36,17.50
2015,05,31,12,37,17.60
2015,05,31,12,38,17.60
2015,05,31,12,39,17.70
2015,05,31,12,40,17.70
2015,05,31,12,41,17.80
2015,05,31,12,42,17.90
2015,05,31,12,43,17.90
2015,05,31,12,44,18.00
2015,05,31,12,45,18.10
2015,05,31,12,46,18.20
2015,05,31,12,47,18.20
2015,05,31,12,48,18.20
2015,05,31,12,49,18.30
2015,05,31,12,50,18.30
2015,05,31,12,51,18.30
2015,05,31,12,52,18.30
2015,05,31,12,53,18.20
2015,05,31,12,54,18.20
2015,05,31,12,55,18.20
2015,05,31,12,56,18.30
2015,05,31,12,57,18.30
2015,05,31,12,58,18.30
2015,05,31,12,59,18.30
2015,05,31,13,00,18.30
2015,05,31,13,01,18.30
2015,05,31,13,02,18.30
2015,05,31,13,03,18.20
2015,05,31,13,04,18.20
2015,05,31,13,05,18.20
2015,05,31,13,06,18.20
2015,05,31,13,07,18.20
2015,05,31,13,08,18.20
2015,05,31,13,09,18.20
2015,05,31,13,10,18.20
2015,05,31,13,11,18.20
2015,05,31,13,12,18.20
2015,05,31,13,13,18.30
2015,05,31,13,14,18.30
2015,05,31,13,15,18.30
2015,05,31,13,16,18.40
2015,05,31,13,17,18.40
2015,05,31,13,18,18.50
2015,05,31,13,19,18.50
2015,05,31,13,20,18.60
2015,05,31,13,21,18.70
2015,05,31,13,22,18.70
2015,05,31,13,23,18.70
2015,05,31,13,24,18.70
2015,05,31,13,25,18.70
2015,05,31,13,26,18.80
2015,05,31,13,27,18.80
2015,05,31,13,28,18.80
2015,05,31,13,29,18.80
2015,05,31,13,30,18.90
2015,05,31,13,31,19.00
2015,05,31,13,32,19.10
2015,05,31,13,33,19.20
2015,05,31,13,34,19.40
2015,05,31,13,35,19.50
2015,05,31,13,36,19.60
2015,05,31,13,37,19.60
2015,05,31,13,38,19.60
2015,05,31,13,39,19.60
2015,05,31,13,40,19.70
2015,05,31,13,41,19.70
2015,05,31,13,42,19.90
2015,05,31,13,43,19.90
2015,05,31,13,44,19.90
2015,05,31,13,45,19.90
2015,05,31,13,46,19.90
2015,05,31,13,47,19.90
2015,05,31,13,48,19.90
2015,05,31,13,49,19.90
2015,05,31,13,50,19.90
2015,05,31,13,51,19.90
2015,05,31,13,52,19.90
2015,05,31,13,53,19.80
2015,05,31,13,54,19.70
2015,05,31,13,55,19.60
2015,05,31,13,56,19.60
2015,05,31,13,57,19.50
2015,05,31,13,58,19.40
2015,05,31,13,59,19.40
2015,05,31,14,00,19.40
2015,05,31,14,01,19.30
2015,05,31,14,02,19.30
2015,05,31,14,03,19.20
2015,05,31,14,04,19.20
2015,05,31,14,05,19.20
2015,05,31,14,06,19.20
2015,05,31,14,07,19.10
2015,05,31,14,08,19.00
2015,05,31,14,09,18.90
2015,05,31,14,10,18.80
2015,05,31,14,11,18.70
2015,05,31,14,12,18.70
2015,05,31,14,13,18.70
2015,05,31,14,14,18.60
2015,05,31,14,15,18.60
2015,05,31,14,16,18.60
2015,05,31,14,17,18.60
2015,05,31,14,18,18.50
2015,05,31,14,19,18.50
2015,05,31,14,20,18.40
2015,05,31,14,21,18.40
2015,05,31,14,22,18.40
2015,05,31,14,23,18.30
2015,05,31,14,24,18.30
2015,05,31,14,25,18.30
2015,05,31,14,26,18.30
2015,05,31,14,27,18.30
2015,05,31,14,28,18.30
2015,05,31,14,29,18.40
2015,05,31,14,30,18.30
2015,05,31,14,31,18.30
2015,05,31,14,32,18.30
2015,05,31,14,33,18.30
2015,05,31,14,34,18.30
2015,05,31,14,35,18.30
2015,05,31,14,36,18.30
2015,05,31,14,37,18.40
2015,05,31,14,38,18.50
2015,05,31,14,39,18.60
2015,05,31,14,40,18.60
2015,05,31,14,41,18.70
2015,05,31,14,42,18.80
2015,05,31,14,43,18.90
2015,05,31,14,44,18.90
2015,05,31,14,45,19.00
2015,05,31,14,46,19.10
2015,05,31,14,47,19.10
2015,05,31,14,48,19.10
2015,05,31,14,49,19.20
2015,05,31,14,50,19.20
2015,05,31,14,51,19.20
2015,05,31,14,52,19.30
2015,05,31,14,53,19.30
2015,05,31,14,54,19.40
2015,05,31,14,55,19.40
2015,05,31,14,56,19.50
2015,05,31,14,57,19.40
2015,05,31,14,58,19.30
2015,05,31,14,59,19.10
2015,05,31,15,00,18.90
2015,05,31,15,01,18.80
2015,05,31,15,02,18.70
2015,05,31,15,03,18.70
2015,05,31,15,04,18.70
2015,05,31,15,05,18.80
2015,05,31,15,06,18.90
2015,05,31,15,07,18.90
2015,05,31,15,08,18.90
2015,05,31,15,09,18.80
2015,05,31,15,10,18.80
2015,05,31,15,11,18.90
2015,05,31,15,12,18.90
2015,05,31,15,13,18.90
2015,05,31,15,14,18.90
2015,05,31,15,15,19.00
2015,05,31,15,16,19.10
2015,05,31,15,17,19.30
2015,05,31,15,18,19.40
2015,05,31,15,19,19.50
2015,05,31,15,20,19.70
2015,05,31,15,21,19.80
2015,05,31,15,22,20.00
2015,05,31,15,23,20.20
2015,05,31,15,24,20.30
2015,05,31,15,25,20.30
2015,05,31,15,26,20.30
2015,05,31,15,27,20.40
2015,05,31,15,28,20.50
2015,05,31,15,29,20.50
2015,05,31,15,30,20.60
2015,05,31,15,31,20.60
2015,05,31,15,32,20.60
2015,05,31,15,33,20.60
2015,05,31,15,34,20.60
2015,05,31,15,35,20.60
2015,05,31,15,36,20.60
2015,05,31,15,37,20.60
2015,05,31,15,38,20.70
2015,05,31,15,39,20.70
2015,05,31,15,40,20.80
2015,05,31,15,41,20.90
2015,05,31,15,42,21.00
2015,05,31,15,43,21.00
2015,05,31,15,44,21.20
2015,05,31,15,45,21.30
2015,05,31,15,46,21.30
2015,05,31,15,47,21.30
2015,05,31,15,48,21.20
2015,05,31,15,49,21.10
2015,05,31,15,50,21.00
2015,05,31,15,51,21.00
2015,05,31,15,52,20.90
2015,05,31,15,53,20.90
2015,05,31,15,54,20.90
2015,05,31,15,55,20.90
2015,05,31,15,56,20.80
2015,05,31,15,57,20.80
2015,05,31,15,58,20.80
2015,05,31,15,59,20.80
2015,05,31,16,00,20.80
2015,05,31,16,01,20.80
2015,05,31,16,02,20.90
2015,05,31,16,03,20.90
2015,05,31,16,04,21.00
2015,05,31,16,05,21.00
2015,05,31,16,06,21.10
2015,05,31,16,07,21.10
2015,05,31,16,08,21.20
2015,05,31,16,09,21.20
2015,05,31,16,10,21.10
2015,05,31,16,11,21.10
2015,05,31,16,12,21.00
2015,05,31,16,13,21.00
2015,05,31,16,14,21.00
2015,05,31,16,15,21.00
2015,05,31,16,16,21.10
2015,05,31,16,17,21.10
2015,05,31,16,18,21.10
2015,05,31,16,19,21.10
2015,05,31,16,20,21.10
2015,05,31,16,21,21.10
2015,05,31,16,22,21.10
2015,05,31,16,23,21.00
2015,05,31,16,24,21.00
2015,05,31,16,25,20.90
2015,05,31,16,26,20.90
2015,05,31,16,27,20.80
2015,05,31,16,28,20.80
2015,05,31,16,29,20.80
2015,05,31,16,30,20.80
2015,05,31,16,31,20.80
2015,05,31,16,32,20.80
2015,05,31,16,33,20.70
2015,05,31,16,34,20.70
2015,05,31,16,35,20.70
2015,05,31,16,36,20.70
2015,05,31,16,37,20.70
2015,05,31,16,38,20.80
2015,05,31,16,39,20.80
2015,05,31,16,40,20.80
2015,05,31,16,41,20.80
2015,05,31,16,42,20.80
2015,05,31,16,43,20.80
2015,05,31,16,44,20.80
2015,05,31,16,45,20.80
2015,05,31,16,46,20.80
2015,05,31,16,47,20.80
2015,05,31,16,48,20.80
2015,05,31,16,49,20.80
2015,05,31,16,50,20.80
2015,05,31,16,51,20.70
2015,05,31,16,52,20.70
2015,05,31,16,53,20.70
2015,05,31,16,54,20.70
2015,05,31,16,55,20.80
2015,05,31,16,56,20.80
2015,05,31,16,57,20.80
2015,05,31,16,58,20.70
2015,05,31,16,59,20.70
2015,05,31,17,00,20.60
2015,05,31,17,01,20.60
2015,05,31,17,02,20.60
2015,05,31,17,03,20.70
2015,05,31,17,04,20.80
2015,05,31,17,05,20.80
2015,05,31,17,06,20.80
2015,05,31,17,07,20.70
2015,05,31,17,08,20.70
2015,05,31,17,09,20.70
2015,05,31,17,10,20.80
2015,05,31,17,11,20.80
2015,05,31,17,12,20.80
2015,05,31,17,13,20.80
2015,05,31,17,14,20.80
2015,05,31,17,15,20.80
2015,05,31,17,16,20.80
2015,05,31,17,17,20.80
2015,05,31,17,18,20.70
2015,05,31,17,19,20.60
2015,05,31,17,20,20.50
2015,05,31,17,21,20.50
2015,05,31,17,22,20.40
2015,05,31,17,23,20.30
2015,05,31,17,24,20.30
2015,05,31,17,25,20.30